Home > Time Zones > World Clock > Weather > France > Pau > Past weeks

Flag for France Weather past 2 weeks in Pau, France

Now
52 °F

Light rain. Passing clouds.


Feels Like: 48 °F
Forecast: 46 / 60 °F
Wind: 10 mph from Southwest

Location: Pau Airport

Current Time: Apr 27, 2015 at 4:24:07 AM

Latest Report: Apr 27, 2015 at 4:00 AM


Visibility: N/A

Pressure: 29.71 "Hg

Humidity: 100%

Dew point: 52 °F

Location of PauLocation

Historic Weather in Pau — Graph

°F

Pau temperature yesterday

Maximum temperature yesterday: 64 °F (at 5:30 PM)
Minimum temperature yesterday: 54 °F (at 10:00 PM)
Average temperature yesterday: 59 °F

Past Weeks' High & Low Weather Summary

 TemperatureHumidityPressure
High84 °F (Apr 14, 4:30 PM)100% (Apr 12, 5:00 AM)30.39 "Hg (Apr 12, 5:00 AM)
Low45 °F (Apr 12, 6:30 AM)23% (Apr 14, 4:30 PM)29.62 "Hg (Apr 26, 4:30 PM)
Average61 °F72%30.05 "Hg
* Reported Apr 12 3:00 AM — Apr 27 3:00 AM, Pau, Weather by CustomWeather, © 2015

Note: Actual official high and low records may vary slightly from our data, if they occured in-between our weather recording intervals... More about our weather records

Advertising

Pau weather history for previous 24 hours

 ConditionsComfort  
Time TempWeatherWind HumidityBarometerVisibility
3:00 AM
Mon, Apr 27
52 °FLight rain. Mostly cloudy.13 mph100%29.71 "HgN/A
2:30 AM52 °FLight rain. Low clouds.13 mph100%29.71 "HgN/A
2:00 AM52 °FRain. Low clouds.12 mph100%29.71 "HgN/A
1:30 AM54 °FHeavy rain. Fog.7 mph94%29.71 "Hg2 mi
1:00 AM54 °FRain. Partly cloudy.7 mph94%29.71 "Hg5 mi
12:30 AM54 °FLight rain. Partly cloudy.7 mph94%29.71 "HgN/A
12:00 AM54 °FRain. Fog.7 mph94%29.71 "Hg3 mi
11:30 PM
Sun, Apr 26
54 °FPartly cloudy.8 mph94%29.71 "HgN/A
11:00 PM54 °FLight rain. Passing clouds.8 mph100%29.71 "HgN/A
10:30 PM54 °FRain. Mostly cloudy.8 mph100%29.71 "HgN/A
10:00 PM54 °FLight rain. Mostly cloudy.8 mph100%29.71 "HgN/A
9:30 PM55 °FRain. Partly sunny.9 mph94%29.68 "HgN/A
9:00 PM55 °FRain. Mostly cloudy.10 mph94%29.68 "HgN/A
8:30 PM55 °FRain. Partly sunny.13 mph94%29.68 "HgN/A
8:00 PM55 °FMostly cloudy.15 mph94%29.68 "HgN/A
7:30 PM57 °FPartly sunny.16 mph94%29.65 "HgN/A
7:00 PM57 °FRain. Fog.20 mph88%29.65 "Hg3 mi
6:30 PM63 °FPartly sunny.1 mph83%29.62 "HgN/A
6:00 PM64 °FBroken clouds.3 mph78%29.62 "HgN/A
5:30 PM64 °FClear.3 mph78%29.62 "HgN/A
5:00 PM63 °FPartly sunny.8 mph83%29.62 "HgN/A
4:30 PM63 °FBroken clouds.7 mph83%29.62 "HgN/A
4:00 PM61 °FLight rain. Mostly cloudy.6 mph88%29.65 "HgN/A
3:30 PM61 °FLight rain. More clouds than sun.6 mph88%29.68 "HgN/A
3:00 PM61 °FLight rain. More clouds than sun.6 mph94%29.68 "HgN/A
2:30 PM61 °FLight rain. More clouds than sun.6 mph88%29.68 "HgN/A
2:00 PM61 °FLight rain. Overcast.6 mph94%29.68 "HgN/A
1:30 PM61 °FLight rain. Broken clouds.6 mph88%29.71 "HgN/A
1:00 PM61 °FLight rain. Broken clouds.3 mph94%29.71 "HgN/A
12:30 PM61 °FLight rain. Mostly cloudy.2 mph83%29.71 "HgN/A
12:00 PM61 °FRain. Mostly cloudy.No wind88%29.71 "HgN/A
11:30 AM59 °FLight rain. Overcast.5 mph94%29.71 "HgN/A
11:00 AM59 °FLight rain. Overcast.8 mph94%29.71 "HgN/A
10:30 AM61 °FLight rain. Overcast.6 mph83%29.71 "HgN/A
10:00 AM61 °FLight rain. Overcast.7 mph83%29.71 "HgN/A
9:30 AM59 °FLight rain. Overcast.3 mph94%29.71 "HgN/A
9:00 AM59 °FOvercast.3 mph88%29.71 "HgN/A
8:30 AM59 °FMostly cloudy.No wind88%29.71 "HgN/A
8:00 AM57 °FLight rain. Overcast.No wind94%29.71 "HgN/A
7:30 AM57 °FOvercast.No wind88%29.71 "HgN/A
7:00 AM57 °FOvercast.3 mph88%29.71 "HgN/A
6:30 AM57 °FPassing clouds.No wind88%29.71 "HgN/A
6:00 AM57 °FClear.3 mph88%29.71 "HgN/A
5:30 AM59 °FPartly cloudy.5 mph88%29.71 "HgN/A
5:00 AM59 °FOvercast.No wind88%29.74 "HgN/A
4:30 AM59 °FOvercast.2 mph82%29.74 "HgN/A
4:00 AM59 °FOvercast.3 mph82%29.74 "HgN/A
Weather by CustomWeather, © 2015

See weather overviewHow to use our weather pages